010  
AXUS43 KGID 200202  
MISGRI  
 
GID CWA HOURLY WEATHER ROUNDUP  
NATIONAL WEATHER SERVICE HASTINGS NE  
900 PM CDT FRI OCT 19 2018  
 
NOTE: "FAIR" INDICATES FEW OR NO CLOUDS BELOW 12,000 FEET WITH NO  
SIGNIFICANT WEATHER AND/OR OBSTRUCTIONS TO VISIBILITY.  
   
..SOUTH CENTRAL NEBRASKA
 
 
 
CITY SKY/WX TMP DP RH WIND PRES REMARKS  
GRAND ISLAND CLEAR 50 34 54 NW9 30.20R  
KEARNEY CLEAR 54 32 43 NW7 30.22R  
HASTINGS CLEAR 47 34 60 NW5 30.21R  
ORD CLEAR 46 32 58 W6 30.20R  
YORK CLEAR 50 36 57 NW10 30.18R  
AURORA CLEAR 52 33 49 NW7 30.19R  
LEXINGTON CLEAR 46 33 60 NW8 30.24R  
HOLDREGE CLEAR 49 34 56 NW6 30.23R  
HEBRON CLEAR 57 36 44 NW5 30.17R  
   
..NEBRASKA PANHANDLE
 
 
 
CITY SKY/WX TMP DP RH WIND PRES REMARKS  
CHADRON CLEAR 46 30 53 CALM 30.30R  
ALLIANCE CLEAR 40 31 70 NW3 30.30R  
SCOTTSBLUFF CLEAR 53 29 39 W3 30.32R  
SIDNEY CLEAR 39 29 67 CALM 30.33R HAZE  
   
..WESTERN AND NORTH CENTRAL NEBRASKA
 
 
 
CITY SKY/WX TMP DP RH WIND PRES REMARKS  
VALENTINE CLEAR 46 31 55 NW8 30.24R  
AINSWORTH CLEAR 49 30 48 NW7 30.23R  
ONEILL CLEAR 48 30 48 NW10 30.19R  
BROKEN BOW CLEAR 52 31 44 NW12 30.22R  
IMPERIAL CLEAR 47 26 44 NW5 30.30R  
NORTH PLATTE CLEAR 43 31 62 NW6 30.27R  
MCCOOK CLEAR 48 32 53 N12 30.27R  
   
..EASTERN NEBRASKA
 
 
 
CITY SKY/WX TMP DP RH WIND PRES REMARKS  
NORFOLK CLEAR 53 32 44 NW10 30.13R  
SO SIOUX CITY CLEAR 53 34 48 NW9 30.10R  
TEKAMAH CLEAR 54 36 50 NW10 30.10R  
COLUMBUS CLEAR 52 33 48 W7 30.17R  
ALBION CLEAR 48 36 61 N8 30.18R  
OMAHA EPPLEY CLEAR 54 35 48 NW8 30.10R  
OFFUTT AFB CLEAR 53 38 57 NW7 30.09R  
MILLARD CLEAR 57 37 47 NW7 30.10S  
LINCOLN CLEAR 58 34 40 NW6 30.14R  
NEBRASKA CITY CLEAR 57 31 36 N9 30.11R  
BEATRICE CLEAR 53 40 61 NW9 30.14R  
FALLS CITY CLEAR 55 39 54 NW8 30.09R  
   
..NORTHERN KANSAS
 
 
 
CITY SKY/WX TMP DP RH WIND PRES REMARKS  
GOODLAND CLEAR 42 32 67 NW7 30.31R  
HILL CITY CLEAR 49 37 63 N12 30.25R  
NORTON CLEAR 46 34 61 NW9 30.24S  
PHILLIPSBURG CLEAR 50 34 54 W8 30.23R  
SMITH CENTER CLEAR 52 34 50 NW7 30.21R  
HAYS CLEAR 55 41 59 N12 30.22R  
RUSSELL CLEAR 58 40 51 N12 30.19R  
CONCORDIA CLEAR 59 37 44 NW8 30.17R  
SALINA CLEAR 57 48 72 N9 30.15R  
TOPEKA CLEAR 53 50 89 CALM 30.08R  
 
CLICK HERE TO GO TO PREVIOUS BULLETINS.

The Nexlab NE Page
The Nexlab KS Page Main Text Page